Tracking 23726 objects as of 16-Oct-2021
HD Live streaming from Space Station
objects crossing your sky now

GLOBALSTAR DEB

Track GLOBALSTAR DEB now!
10-day predictions


NORAD ID: 27772
Int'l Code: 1999-031F
Perigee: 1,129.9 km
Apogee: 1,193.6 km
Inclination: 52.0 °
Period: 108.4 minutes
Semi major axis: 7532 km
RCS: 0.0157 m2 (small)
Launch date: June 10, 1999
Source: Globalstar (GLOB)
Launch site: AIR FORCE EASTERN TEST RANGE (AFETR)

Note: This is SATELLITE DEBRIS
aabbcc
Your satellite tracking list
Your tracking list is empty




NASA's NSSDC Master Catalog

Two Line Element Set (TLE):
1 27772U 99031F   21288.60535487  .00003205  00000-0  72957-2 0  9998
2 27772  52.0255  76.1301 0042340 103.5030 339.9321 13.27921791917154
Source of the keplerian elements: AFSPC